TimeCDT,TemperatureF,Dew PointF,Humidity,Sea Level PressureIn,VisibilityMPH,Wind Direction,Wind SpeedMPH,Gust SpeedMPH,PrecipitationIn,Events,Conditions,WindDirDegrees,DateUTC
12:15 AM,59.2,58.3,97,29.74,10.0,SSW,6.9,-,N/A,,Mostly Cloudy,200,2014-03-12 05:15:00
12:35 AM,59.9,59.2,97,29.75,10.0,SSW,11.5,-,N/A,,Overcast,210,2014-03-12 05:35:00
12:55 AM,59.9,59.0,97,29.75,10.0,SSW,12.7,18.4,N/A,,Overcast,210,2014-03-12 05:55:00
1:15 AM,59.7,58.6,96,29.76,10.0,SW,6.9,-,N/A,,Overcast,220,2014-03-12 06:15:00
1:35 AM,59.9,59.0,97,29.76,10.0,SSW,4.6,-,N/A,,Overcast,210,2014-03-12 06:35:00
1:55 AM,59.9,59.0,97,29.76,10.0,SW,8.1,-,N/A,,Overcast,220,2014-03-12 06:55:00
2:15 AM,59.9,59.0,97,29.76,10.0,SW,4.6,-,N/A,,Overcast,230,2014-03-12 07:15:00
2:35 AM,59.9,59.0,97,29.75,10.0,SSW,5.8,-,N/A,,Overcast,210,2014-03-12 07:35:00
2:55 AM,59.9,59.0,97,29.75,10.0,SSW,5.8,-,N/A,,Overcast,210,2014-03-12 07:55:00
3:15 AM,60.1,59.0,96,29.76,10.0,SW,3.5,-,N/A,,Overcast,220,2014-03-12 08:15:00
3:35 AM,60.1,59.2,97,29.75,7.0,SSW,6.9,-,N/A,,Overcast,210,2014-03-12 08:35:00
3:55 AM,60.1,59.2,97,29.75,7.0,SW,3.5,-,N/A,,Overcast,220,2014-03-12 08:55:00
4:15 AM,60.1,59.4,97,29.76,5.0,Calm,Calm,-,N/A,,Overcast,0,2014-03-12 09:15:00
4:35 AM,60.3,59.9,99,29.77,3.0,Calm,Calm,-,N/A,,Overcast,0,2014-03-12 09:35:00
4:55 AM,60.4,59.9,98,29.80,3.0,West,4.6,-,N/A,,Overcast,270,2014-03-12 09:55:00
5:15 AM,60.8,60.1,97,29.80,5.0,West,5.8,-,N/A,,Overcast,270,2014-03-12 10:15:00
5:35 AM,60.8,59.9,97,29.81,5.0,West,3.5,-,N/A,,Overcast,270,2014-03-12 10:35:00
5:55 AM,61.0,59.4,94,29.82,5.0,West,5.8,-,N/A,,Overcast,270,2014-03-12 10:55:00
6:15 AM,61.0,59.2,94,29.83,7.0,West,3.5,-,N/A,,Overcast,280,2014-03-12 11:15:00
6:35 AM,61.2,59.0,93,29.85,7.0,West,3.5,-,N/A,,Overcast,280,2014-03-12 11:35:00
6:55 AM,61.0,59.0,93,29.85,7.0,WNW,3.5,-,N/A,,Overcast,290,2014-03-12 11:55:00
7:15 AM,60.8,59.0,94,29.87,4.0,WNW,5.8,-,N/A,,Overcast,290,2014-03-12 12:15:00
7:35 AM,60.8,59.0,94,29.89,7.0,NW,9.2,-,N/A,,Overcast,310,2014-03-12 12:35:00
7:55 AM,60.4,56.7,87,29.90,10.0,NNW,12.7,17.3,N/A,,Overcast,330,2014-03-12 12:55:00
8:15 AM,59.7,53.4,80,29.92,10.0,NW,11.5,18.4,N/A,,Mostly Cloudy,320,2014-03-12 13:15:00
8:35 AM,59.0,48.7,69,29.94,10.0,NW,12.7,20.7,N/A,,Mostly Cloudy,310,2014-03-12 13:35:00
8:55 AM,58.3,43.3,58,29.95,10.0,NNW,18.4,26.5,N/A,,Scattered Clouds,330,2014-03-12 13:55:00
9:15 AM,59.4,44.6,58,29.97,10.0,NNW,11.5,18.4,N/A,,Clear,340,2014-03-12 14:15:00
9:35 AM,59.5,42.8,54,29.98,10.0,NW,12.7,23.0,N/A,,Clear,320,2014-03-12 14:35:00
9:55 AM,59.5,42.3,53,29.99,10.0,NNW,12.7,24.2,N/A,,Clear,330,2014-03-12 14:55:00
10:15 AM,60.1,42.3,52,30.00,10.0,NNW,13.8,19.6,N/A,,Clear,340,2014-03-12 15:15:00
10:35 AM,60.1,41.7,51,30.01,10.0,NNW,17.3,24.2,N/A,,Clear,340,2014-03-12 15:35:00
10:55 AM,60.8,41.7,49,30.02,10.0,NNW,17.3,27.6,N/A,,Clear,340,2014-03-12 15:55:00
11:15 AM,61.0,42.1,50,30.03,10.0,NW,17.3,23.0,N/A,,Clear,320,2014-03-12 16:15:00
11:35 AM,61.9,42.3,49,30.04,10.0,NNW,12.7,23.0,N/A,,Clear,340,2014-03-12 16:35:00
11:55 AM,62.4,41.7,47,30.04,10.0,NW,13.8,21.9,N/A,,Clear,320,2014-03-12 16:55:00
12:15 PM,63.3,42.8,47,30.05,10.0,NNW,15.0,21.9,N/A,,Clear,340,2014-03-12 17:15:00
12:35 PM,64.6,42.6,45,30.05,10.0,NW,16.1,23.0,N/A,,Clear,320,2014-03-12 17:35:00
1:15 PM,65.1,42.1,43,30.05,10.0,NW,13.8,23.0,N/A,,Clear,320,2014-03-12 18:15:00
1:35 PM,65.5,41.9,42,30.05,10.0,NNW,16.1,24.2,N/A,,Clear,340,2014-03-12 18:35:00
1:55 PM,66.6,42.3,41,30.04,10.0,NNW,12.7,20.7,N/A,,Clear,330,2014-03-12 18:55:00
2:15 PM,66.6,41.5,40,30.04,10.0,NNW,13.8,24.2,N/A,,Clear,330,2014-03-12 19:15:00
2:35 PM,66.4,41.0,40,30.04,10.0,NNW,17.3,23.0,N/A,,Clear,330,2014-03-12 19:35:00
2:55 PM,66.6,40.6,39,30.03,10.0,North,12.7,24.2,N/A,,Clear,350,2014-03-12 19:55:00
3:15 PM,66.9,39.2,36,30.03,10.0,NW,16.1,24.2,N/A,,Clear,320,2014-03-12 20:15:00
3:35 PM,67.3,39.0,35,30.03,10.0,NNW,12.7,24.2,N/A,,Clear,330,2014-03-12 20:35:00
3:55 PM,67.3,39.0,35,30.04,10.0,NW,16.1,21.9,N/A,,Clear,320,2014-03-12 20:55:00
4:15 PM,67.3,37.9,34,30.04,10.0,NNW,19.6,25.3,N/A,,Clear,330,2014-03-12 21:15:00
4:35 PM,67.1,38.1,34,30.04,10.0,North,16.1,21.9,N/A,,Clear,350,2014-03-12 21:35:00
4:55 PM,67.3,37.6,34,30.04,10.0,NNW,15.0,21.9,N/A,,Clear,340,2014-03-12 21:55:00
5:15 PM,66.4,35.8,32,30.05,10.0,NNW,16.1,24.2,N/A,,Clear,340,2014-03-12 22:15:00
5:35 PM,66.0,36.0,33,30.05,10.0,NNW,13.8,24.2,N/A,,Clear,340,2014-03-12 22:35:00
5:55 PM,65.8,35.6,33,30.05,10.0,NNW,12.7,18.4,N/A,,Clear,340,2014-03-12 22:55:00
6:15 PM,64.9,33.8,31,30.06,10.0,NNW,17.3,25.3,N/A,,Clear,340,2014-03-12 23:15:00
6:35 PM,64.4,33.4,32,30.07,10.0,NNW,15.0,21.9,N/A,,Clear,330,2014-03-12 23:35:00
6:55 PM,63.3,33.1,32,30.08,10.0,NNW,10.4,17.3,N/A,,Clear,340,2014-03-12 23:55:00
7:15 PM,61.9,32.2,33,30.09,10.0,NNW,12.7,18.4,N/A,,Clear,330,2014-03-13 00:15:00
7:35 PM,61.0,31.3,33,30.11,10.0,NNW,10.4,-,N/A,,Clear,330,2014-03-13 00:35:00
7:55 PM,59.5,31.5,35,30.12,10.0,NNW,8.1,-,N/A,,Clear,330,2014-03-13 00:55:00
8:15 PM,58.5,31.3,36,30.13,10.0,NNW,5.8,-,N/A,,Clear,330,2014-03-13 01:15:00
8:35 PM,57.7,31.3,37,30.15,10.0,NNW,5.8,-,N/A,,Clear,330,2014-03-13 01:35:00
8:55 PM,56.8,31.8,39,30.16,10.0,NNW,5.8,-,N/A,,Clear,330,2014-03-13 01:55:00
9:15 PM,55.8,32.0,41,30.17,10.0,NNW,4.6,-,N/A,,Clear,330,2014-03-13 02:15:00
9:35 PM,55.0,32.4,42,30.19,10.0,NNW,3.5,-,N/A,,Clear,330,2014-03-13 02:35:00
9:55 PM,54.1,32.0,43,30.20,10.0,NNW,4.6,-,N/A,,Clear,330,2014-03-13 02:55:00
10:15 PM,53.6,32.0,44,30.20,10.0,NNW,3.5,-,N/A,,Clear,340,2014-03-13 03:15:00
10:35 PM,52.7,32.0,45,30.21,10.0,NNW,4.6,-,N/A,,Clear,330,2014-03-13 03:35:00
10:55 PM,52.2,32.0,46,30.22,10.0,NNW,4.6,-,N/A,,Clear,330,2014-03-13 03:55:00
11:15 PM,51.8,32.0,47,30.23,10.0,NNW,4.6,-,N/A,,Clear,330,2014-03-13 04:15:00
11:35 PM,51.1,31.8,48,30.23,10.0,Calm,Calm,-,N/A,,Clear,0,2014-03-13 04:35:00
11:55 PM,50.4,32.0,49,30.24,10.0,Calm,Calm,-,N/A,,Clear,0,2014-03-13 04:55:00